Regional Weather Roundup
Issued by NWS

Home | Current Version | Previous Version | Graphics & Text | Print | Product List | Glossary On
Versions: 1 2 3 4 5 6 7 8 9 10 11 12 13 14 15 16 17 18 19 20 21 22 23 24 25 26 27 28 29 30 31 32 33 34 35 36 37 38 39 40 41 42 43 44 45 46 47 48 49 50
000
ASUS44 KMEG 211300
RWRTN
TENNESSEE HOURLY STATE WEATHER ROUNDUP
NATIONAL WEATHER SERVICE MEMPHIS TN
800 AM CDT SUN SEP 21 2014

TNZ002-004-019-021-049-052-054-088>092-211400-
WEST TENNESSEE

CITY           SKY/WX    TMP DP  RH WIND       PRES   REMARKS
MEMPHIS INTL   MOSUNNY   74  67  78 CALM      30.03R
NWS MEMPHIS      N/A     71 N/A N/A MISG        N/A
JACKSON        SUNNY     71  66  84 SW7       30.02R
DYERSBURG      SUNNY     72  61  68 W9        30.00S
UNION CITY     SUNNY     70  66  88 SW7       29.98R
PARIS          SUNNY     70  64  83 SW6       29.99R
SAVANNAH       SUNNY     70  70 100 CALM      30.03R
$$

TNZ008-025-027-028-033-062-065-066-211400-
NORTH MIDDLE TENNESSEE

CITY           SKY/WX    TMP DP  RH WIND       PRES   REMARKS
NASHVILLE      PTSUNNY   71  67  87 SW6       29.99S
CLARKSVILLE    PTSUNNY   72  66  81 W7        29.97R
COOKEVILLE     PTSUNNY   66  64  94 S5        30.01S
CROSSVILLE     SUNNY     67  60  78 SW3       30.05S
$$

TNZ061-075-076-078-094-096-097-211400-
SOUTH MIDDLE TENNESSEE

CITY           SKY/WX    TMP DP  RH WIND       PRES   REMARKS
SHELBYVILLE    SUNNY     70  66  88 S5        30.03S
$$

TNZ017-018-042-046-047-211400-
NORTHEAST TENNESSEE

CITY           SKY/WX    TMP DP  RH WIND       PRES   REMARKS
TRI CITIES     MOSUNNY   61  57  87 CALM      30.03R
ELIZABETHTON   CLOUDY    57  55  94 E3        30.04S
$$

TNZ012-013-036-069-073-074-211400-
CENTRAL EAST TENNESSEE

CITY           SKY/WX    TMP DP  RH WIND       PRES   REMARKS
KNOXVILLE      MOSUNNY   68  61  78 SW6       30.01S
OAK RIDGE      PTSUNNY   66  63  90 VRB5      30.03S
GATLINBURG     MOSUNNY   63  59  88 CALM      30.02R
$$

TNZ083-085-099-211400-
SOUTHEAST TENNESSEE

CITY           SKY/WX    TMP DP  RH WIND       PRES   REMARKS
CHATTANOOGA    SUNNY     66  60  81 CALM      30.04R
$$

SKY/WX REPORTED AS FAIR MEANS FEW OR NO CLOUDS BELOW
12 THOUSAND FEET.



USA.gov is the U.S. government's official web portal to all federal, state and local government web resources and services.